Time,TemperatureF,DewpointF,PressureIn,WindDirection,WindDirectionDegrees,WindSpeedMPH,WindSpeedGustMPH,Humidity,HourlyPrecipIn,Conditions,Clouds,dailyrainin,SoftwareType,DateUTC
2013-06-02 00:01:00,68.6,45.7,29.78,WSW,248,1.8,3.4,44,0.00,,,0.00,WUHU216HW,2013-06-02 07:01:00,
2013-06-02 00:06:00,68.4,45.5,29.77,WSW,248,1.8,3.4,44,0.00,,,0.00,WUHU216HW,2013-06-02 07:06:00,
2013-06-02 00:11:00,67.9,45.1,29.78,SW,225,1.6,2.7,44,0.00,,,0.00,WUHU216HW,2013-06-02 07:11:00,
2013-06-02 00:16:00,67.7,44.9,29.77,WSW,248,1.3,2.7,44,0.00,,,0.00,WUHU216HW,2013-06-02 07:16:00,
2013-06-02 00:21:00,67.3,44.6,29.77,West,270,1.1,2.0,44,0.00,,,0.00,WUHU216HW,2013-06-02 07:21:00,
2013-06-02 00:26:00,67.1,45.0,29.77,West,270,0.4,1.6,45,0.00,,,0.00,WUHU216HW,2013-06-02 07:26:00,
2013-06-02 00:31:00,67.0,44.8,29.77,WSW,248,1.1,1.8,45,0.00,,,0.00,WUHU216HW,2013-06-02 07:31:00,
2013-06-02 00:36:00,66.6,44.6,29.77,WSW,248,1.8,2.0,45,0.00,,,0.00,WUHU216HW,2013-06-02 07:36:00,
2013-06-02 00:41:00,66.4,44.9,29.77,WSW,248,1.8,2.5,46,0.00,,,0.00,WUHU216HW,2013-06-02 07:41:00,
2013-06-02 00:46:00,66.2,44.8,29.77,WSW,248,2.5,2.5,46,0.00,,,0.00,WUHU216HW,2013-06-02 07:46:00,
2013-06-02 00:51:00,65.9,44.5,29.77,WSW,248,0.7,2.5,46,0.00,,,0.00,WUHU216HW,2013-06-02 07:51:00,
2013-06-02 00:56:00,65.7,44.3,29.77,WSW,248,0.9,2.2,46,0.00,,,0.00,WUHU216HW,2013-06-02 07:56:00,
2013-06-02 01:01:00,65.5,44.6,29.77,West,270,1.1,2.2,47,0.00,,,0.00,WUHU216HW,2013-06-02 08:01:00,
2013-06-02 01:06:00,65.3,44.5,29.77,WNW,293,0.4,1.8,47,0.00,,,0.00,WUHU216HW,2013-06-02 08:06:00,
2013-06-02 01:11:00,65.2,44.4,29.77,WSW,248,1.1,1.1,47,0.00,,,0.00,WUHU216HW,2013-06-02 08:11:00,
2013-06-02 01:16:00,64.8,44.6,29.77,WSW,248,1.3,1.8,48,0.00,,,0.00,WUHU216HW,2013-06-02 08:16:00,
2013-06-02 01:21:00,64.6,45.0,29.77,WSW,248,2.2,2.5,49,0.00,,,0.00,WUHU216HW,2013-06-02 08:21:00,
2013-06-02 01:26:00,64.4,44.8,29.76,WSW,248,1.1,3.6,49,0.00,,,0.00,WUHU216HW,2013-06-02 08:26:00,
2013-06-02 01:31:00,64.4,44.8,29.76,WSW,248,1.1,3.6,49,0.00,,,0.00,WUHU216HW,2013-06-02 08:31:00,
2013-06-02 01:36:00,64.3,44.7,29.76,WSW,248,0.9,2.5,49,0.00,,,0.00,WUHU216HW,2013-06-02 08:36:00,
2013-06-02 01:41:00,64.1,45.0,29.76,WSW,248,1.8,3.4,50,0.00,,,0.00,WUHU216HW,2013-06-02 08:41:00,
2013-06-02 01:46:00,63.9,44.9,29.76,WSW,248,3.4,3.4,50,0.00,,,0.00,WUHU216HW,2013-06-02 08:46:00,
2013-06-02 01:51:00,63.7,44.7,29.76,WSW,248,1.1,3.4,50,0.00,,,0.00,WUHU216HW,2013-06-02 08:51:00,
2013-06-02 01:56:00,63.7,44.7,29.76,West,270,1.6,2.7,50,0.00,,,0.00,WUHU216HW,2013-06-02 08:56:00,
2013-06-02 02:01:00,63.5,44.6,29.76,West,270,1.1,1.6,50,0.00,,,0.00,WUHU216HW,2013-06-02 09:01:00,
2013-06-02 02:06:00,63.4,43.8,29.76,WSW,248,1.8,2.0,49,0.00,,,0.00,WUHU216HW,2013-06-02 09:06:00,
2013-06-02 02:11:00,63.2,44.2,29.76,SW,225,1.1,2.0,50,0.00,,,0.00,WUHU216HW,2013-06-02 09:11:00,
2013-06-02 02:16:00,63.0,44.1,29.76,WSW,248,0.4,1.8,50,0.00,,,0.00,WUHU216HW,2013-06-02 09:16:00,
2013-06-02 02:21:00,62.8,43.9,29.76,SW,225,1.1,1.8,50,0.00,,,0.00,WUHU216HW,2013-06-02 09:21:00,
2013-06-02 02:26:00,62.6,43.7,29.76,SW,225,1.1,1.8,50,0.00,,,0.00,WUHU216HW,2013-06-02 09:26:00,
2013-06-02 02:31:00,62.3,43.9,29.75,SSW,203,0.0,1.3,51,0.00,,,0.00,WUHU216HW,2013-06-02 09:31:00,
2013-06-02 02:36:00,61.9,43.6,29.76,SW,225,1.3,1.3,51,0.00,,,0.00,WUHU216HW,2013-06-02 09:36:00,
2013-06-02 02:41:00,61.7,43.4,29.76,SW,225,0.7,1.3,51,0.00,,,0.00,WUHU216HW,2013-06-02 09:41:00,
2013-06-02 02:46:00,61.6,43.3,29.76,SSW,203,0.9,1.3,51,0.00,,,0.00,WUHU216HW,2013-06-02 09:46:00,
2013-06-02 02:51:00,61.2,42.9,29.75,WSW,248,0.0,1.3,51,0.00,,,0.00,WUHU216HW,2013-06-02 09:51:00,
2013-06-02 02:56:00,61.0,42.8,29.75,WSW,248,0.0,1.3,51,0.00,,,0.00,WUHU216HW,2013-06-02 09:56:00,
2013-06-02 03:01:00,60.8,43.1,29.75,SSW,203,2.2,2.2,52,0.00,,,0.00,WUHU216HW,2013-06-02 10:01:00,
2013-06-02 03:06:00,60.5,43.2,29.75,SW,225,1.8,2.2,53,0.00,,,0.00,WUHU216HW,2013-06-02 10:06:00,
2013-06-02 03:11:00,60.3,43.1,29.75,WSW,248,0.9,2.0,53,0.00,,,0.00,WUHU216HW,2013-06-02 10:11:00,
2013-06-02 03:16:00,60.1,42.9,29.75,WSW,248,0.4,2.0,53,0.00,,,0.00,WUHU216HW,2013-06-02 10:16:00,
2013-06-02 03:21:00,60.1,42.9,29.75,WSW,248,1.1,1.1,53,0.00,,,0.00,WUHU216HW,2013-06-02 10:21:00,
2013-06-02 03:26:00,59.8,42.6,29.75,WSW,248,0.9,2.0,53,0.00,,,0.00,WUHU216HW,2013-06-02 10:26:00,
2013-06-02 03:31:00,59.8,43.0,29.75,West,270,1.3,2.0,54,0.00,,,0.00,WUHU216HW,2013-06-02 10:31:00,
2013-06-02 03:36:00,59.6,42.8,29.75,WSW,248,2.7,2.9,54,0.00,,,0.00,WUHU216HW,2013-06-02 10:36:00,
2013-06-02 03:41:00,59.6,43.4,29.74,WSW,248,2.7,2.9,55,0.00,,,0.00,WUHU216HW,2013-06-02 10:41:00,
2013-06-02 03:46:00,59.4,43.2,29.75,West,270,2.0,2.7,55,0.00,,,0.00,WUHU216HW,2013-06-02 10:46:00,
2013-06-02 03:51:00,59.4,43.7,29.75,West,270,0.9,2.0,56,0.00,,,0.00,WUHU216HW,2013-06-02 10:51:00,
2013-06-02 03:56:00,59.4,43.7,29.75,WSW,248,1.3,1.8,56,0.00,,,0.00,WUHU216HW,2013-06-02 10:56:00,
2013-06-02 04:01:00,59.2,43.9,29.74,WSW,248,1.1,1.8,57,0.00,,,0.00,WUHU216HW,2013-06-02 11:01:00,
2013-06-02 04:06:00,59.0,43.7,29.74,West,270,1.1,1.8,57,0.00,,,0.00,WUHU216HW,2013-06-02 11:06:00,
2013-06-02 04:11:00,59.0,44.3,29.74,WSW,248,1.1,1.6,58,0.00,,,0.00,WUHU216HW,2013-06-02 11:11:00,
2013-06-02 04:16:00,58.9,44.1,29.74,WSW,248,0.9,1.6,58,0.00,,,0.00,WUHU216HW,2013-06-02 11:16:00,
2013-06-02 04:21:00,58.7,43.9,29.74,SW,225,1.1,1.3,58,0.00,,,0.00,WUHU216HW,2013-06-02 11:21:00,
2013-06-02 04:26:00,58.5,43.7,29.74,SW,225,0.0,1.3,58,0.00,,,0.00,WUHU216HW,2013-06-02 11:26:00,
2013-06-02 04:31:00,58.3,43.6,29.74,SW,225,0.0,0.7,58,0.00,,,0.00,WUHU216HW,2013-06-02 11:31:00,
2013-06-02 04:36:00,58.0,43.3,29.75,SW,225,0.7,0.9,58,0.00,,,0.00,WUHU216HW,2013-06-02 11:36:00,
2013-06-02 04:41:00,57.8,43.1,29.74,South,180,0.4,0.9,58,0.00,,,0.00,WUHU216HW,2013-06-02 11:41:00,
2013-06-02 04:46:00,57.6,42.9,29.75,SSW,203,1.1,1.3,58,0.00,,,0.00,WUHU216HW,2013-06-02 11:46:00,
2013-06-02 04:51:00,57.4,43.3,29.75,South,180,0.9,1.3,59,0.00,,,0.00,WUHU216HW,2013-06-02 11:51:00,
2013-06-02 04:55:00,57.2,43.1,29.75,SSE,158,0.7,1.1,59,0.00,,,0.00,WUHU216HW,2013-06-02 11:55:00,
2013-06-02 05:00:00,56.9,42.8,29.75,SSE,158,0.9,1.1,59,0.00,,,0.00,WUHU216HW,2013-06-02 12:00:00,
2013-06-02 05:05:00,56.9,42.8,29.75,South,180,2.0,2.0,59,0.00,,,0.00,WUHU216HW,2013-06-02 12:05:00,
2013-06-02 05:10:00,56.5,42.4,29.75,SSW,203,0.0,2.0,59,0.00,,,0.00,WUHU216HW,2013-06-02 12:10:00,
2013-06-02 05:16:00,56.5,42.8,29.75,SSW,203,0.0,1.8,60,0.00,,,0.00,WUHU216HW,2013-06-02 12:16:00,
2013-06-02 05:21:00,56.3,42.7,29.75,SSW,203,0.0,0.0,60,0.00,,,0.00,WUHU216HW,2013-06-02 12:21:00,
2013-06-02 05:25:00,56.2,42.5,29.75,SE,135,0.0,1.3,60,0.00,,,0.00,WUHU216HW,2013-06-02 12:25:00,
2013-06-02 05:30:00,56.0,42.3,29.75,SE,135,1.1,1.3,60,0.00,,,0.00,WUHU216HW,2013-06-02 12:30:00,
2013-06-02 05:35:00,55.8,42.6,29.75,SE,135,1.1,1.1,61,0.00,,,0.00,WUHU216HW,2013-06-02 12:35:00,
2013-06-02 05:40:00,55.8,42.6,29.75,ESE,113,0.0,1.1,61,0.00,,,0.00,WUHU216HW,2013-06-02 12:40:00,
2013-06-02 05:45:00,55.4,42.2,29.75,East,90,0.0,0.0,61,0.00,,,0.00,WUHU216HW,2013-06-02 12:45:00,
2013-06-02 05:50:00,55.3,42.0,29.76,SSE,158,0.0,0.0,61,0.00,,,0.00,WUHU216HW,2013-06-02 12:50:00,
2013-06-02 05:55:00,55.1,41.9,29.76,SSE,158,0.2,0.4,61,0.00,,,0.00,WUHU216HW,2013-06-02 12:55:00,
2013-06-02 06:00:00,55.1,42.3,29.76,SSE,158,0.0,1.3,62,0.00,,,0.00,WUHU216HW,2013-06-02 13:00:00,
2013-06-02 06:05:00,54.9,42.1,29.76,SSE,158,0.0,1.3,62,0.00,,,0.00,WUHU216HW,2013-06-02 13:05:00,
2013-06-02 06:10:00,54.7,42.0,29.75,South,180,1.6,1.6,62,0.00,,,0.00,WUHU216HW,2013-06-02 13:10:00,
2013-06-02 06:15:00,54.7,42.3,29.75,SSE,158,0.4,1.6,63,0.00,,,0.00,WUHU216HW,2013-06-02 13:15:00,
2013-06-02 06:20:00,54.7,42.8,29.76,SSE,158,0.0,1.6,64,0.00,,,0.00,WUHU216HW,2013-06-02 13:20:00,
2013-06-02 06:25:00,54.9,42.9,29.76,North,0,0.0,0.0,64,0.00,,,0.00,WUHU216HW,2013-06-02 13:25:00,
2013-06-02 06:30:00,55.1,43.1,29.76,SE,135,1.1,1.1,64,0.00,,,0.00,WUHU216HW,2013-06-02 13:30:00,
2013-06-02 06:35:00,55.3,42.9,29.76,SE,135,0.0,1.1,63,0.00,,,0.00,WUHU216HW,2013-06-02 13:35:00,
2013-06-02 06:40:00,55.4,43.0,29.76,SE,135,0.0,1.1,63,0.00,,,0.00,WUHU216HW,2013-06-02 13:40:00,
2013-06-02 06:45:00,56.2,44.1,29.76,SE,135,0.4,0.4,64,0.00,,,0.00,WUHU216HW,2013-06-02 13:45:00,
2013-06-02 06:50:00,56.7,44.7,29.76,SE,135,0.4,0.9,64,0.00,,,0.00,WUHU216HW,2013-06-02 13:50:00,
2013-06-02 06:55:00,57.4,45.3,29.76,SSW,203,0.9,1.3,64,0.00,,,0.00,WUHU216HW,2013-06-02 13:55:00,
2013-06-02 07:00:00,58.3,46.2,29.76,SW,225,0.4,1.3,64,0.00,,,0.00,WUHU216HW,2013-06-02 14:00:00,
2013-06-02 07:05:00,59.2,47.0,29.76,WNW,293,0.4,1.1,64,0.00,,,0.00,WUHU216HW,2013-06-02 14:05:00,
2013-06-02 07:10:00,60.1,47.9,29.76,SW,225,0.4,1.3,64,0.00,,,0.00,WUHU216HW,2013-06-02 14:10:00,
2013-06-02 07:15:00,60.8,48.6,29.76,SW,225,0.0,1.3,64,0.00,,,0.00,WUHU216HW,2013-06-02 14:15:00,
2013-06-02 07:20:00,61.9,49.6,29.76,WSW,248,0.2,1.1,64,0.00,,,0.00,WUHU216HW,2013-06-02 14:20:00,
2013-06-02 07:25:00,62.8,50.1,29.76,WSW,248,2.9,2.9,63,0.00,,,0.00,WUHU216HW,2013-06-02 14:25:00,
2013-06-02 07:30:00,63.7,50.1,29.76,SSW,203,1.8,2.9,61,0.00,,,0.00,WUHU216HW,2013-06-02 14:30:00,
2013-06-02 07:35:00,64.8,51.0,29.76,SSW,203,0.4,2.2,61,0.00,,,0.00,WUHU216HW,2013-06-02 14:35:00,
2013-06-02 07:40:00,65.9,51.7,29.76,South,180,1.8,2.2,60,0.00,,,0.00,WUHU216HW,2013-06-02 14:40:00,
2013-06-02 07:45:00,67.0,51.2,29.76,SSW,203,0.7,1.8,57,0.00,,,0.00,WUHU216HW,2013-06-02 14:45:00,
2013-06-02 07:50:00,67.3,51.6,29.76,SSW,203,1.1,1.6,57,0.00,,,0.00,WUHU216HW,2013-06-02 14:50:00,
2013-06-02 07:55:00,68.6,51.2,29.76,West,270,1.8,1.8,54,0.00,,,0.00,WUHU216HW,2013-06-02 14:55:00,
2013-06-02 08:00:00,69.1,51.8,29.76,SW,225,0.9,1.8,54,0.00,,,0.00,WUHU216HW,2013-06-02 15:00:00,
2013-06-02 08:05:00,69.7,51.2,29.76,South,180,2.5,2.5,52,0.00,,,0.00,WUHU216HW,2013-06-02 15:05:00,
2013-06-02 08:10:00,70.4,52.4,29.76,South,180,1.8,3.6,53,0.00,,,0.00,WUHU216HW,2013-06-02 15:10:00,
2013-06-02 08:15:00,71.3,52.8,29.76,WSW,248,2.0,3.6,52,0.00,,,0.00,WUHU216HW,2013-06-02 15:15:00,
2013-06-02 08:20:00,72.0,52.4,29.76,West,270,3.4,3.4,50,0.00,,,0.00,WUHU216HW,2013-06-02 15:20:00,
2013-06-02 08:25:00,72.0,52.4,29.76,WSW,248,2.7,3.4,50,0.00,,,0.00,WUHU216HW,2013-06-02 15:25:00,
2013-06-02 08:30:00,72.5,52.8,29.76,WSW,248,1.8,3.4,50,0.00,,,0.00,WUHU216HW,2013-06-02 15:30:00,
2013-06-02 08:35:00,73.4,53.0,29.76,West,270,1.8,4.0,49,0.00,,,0.00,WUHU216HW,2013-06-02 15:35:00,
2013-06-02 08:40:00,73.8,52.2,29.76,West,270,2.0,4.0,47,0.00,,,0.00,WUHU216HW,2013-06-02 15:40:00,
2013-06-02 08:45:00,74.2,52.6,29.76,SSW,203,2.2,2.2,47,0.00,,,0.00,WUHU216HW,2013-06-02 15:45:00,
2013-06-02 08:50:00,74.9,53.3,29.76,NW,315,3.4,3.4,47,0.00,,,0.00,WUHU216HW,2013-06-02 15:50:00,
2013-06-02 08:55:00,75.2,53.0,29.76,WSW,248,2.2,3.6,46,0.00,,,0.00,WUHU216HW,2013-06-02 15:55:00,
2013-06-02 09:00:00,75.2,52.4,29.76,WSW,248,1.8,3.6,45,0.00,,,0.00,WUHU216HW,2013-06-02 16:00:00,
2013-06-02 09:05:00,75.2,52.4,29.76,WNW,293,3.1,3.8,45,0.00,,,0.00,WUHU216HW,2013-06-02 16:05:00,
2013-06-02 09:10:00,75.2,52.4,29.75,West,270,3.1,3.8,45,0.00,,,0.00,WUHU216HW,2013-06-02 16:10:00,
2013-06-02 09:15:00,75.1,52.2,29.75,WSW,248,0.9,3.1,45,0.00,,,0.00,WUHU216HW,2013-06-02 16:15:00,
2013-06-02 09:20:00,75.1,52.2,29.75,SW,225,2.7,3.1,45,0.00,,,0.00,WUHU216HW,2013-06-02 16:20:00,
2013-06-02 09:25:00,75.2,52.4,29.75,WNW,293,3.4,3.4,45,0.00,,,0.00,WUHU216HW,2013-06-02 16:25:00,
2013-06-02 09:30:00,74.9,52.0,29.75,West,270,3.4,3.4,45,0.00,,,0.00,WUHU216HW,2013-06-02 16:30:00,
2013-06-02 09:35:00,74.9,52.0,29.74,West,270,3.1,3.4,45,0.00,,,0.00,WUHU216HW,2013-06-02 16:35:00,
2013-06-02 09:40:00,75.1,52.2,29.74,West,270,3.6,3.6,45,0.00,,,0.00,WUHU216HW,2013-06-02 16:40:00,
2013-06-02 09:45:00,75.1,52.2,29.74,East,90,0.4,3.6,45,0.00,,,0.00,WUHU216HW,2013-06-02 16:45:00,
2013-06-02 09:50:00,75.2,52.4,29.74,NW,315,1.6,3.1,45,0.00,,,0.00,WUHU216HW,2013-06-02 16:50:00,
2013-06-02 09:55:00,75.6,52.8,29.74,WNW,293,3.4,3.4,45,0.00,,,0.00,WUHU216HW,2013-06-02 16:55:00,
2013-06-02 10:00:00,76.0,53.0,29.74,WSW,248,3.1,3.4,45,0.00,,,0.00,WUHU216HW,2013-06-02 17:00:00,
2013-06-02 10:05:00,76.3,52.7,29.74,SE,135,1.6,3.4,44,0.00,,,0.00,WUHU216HW,2013-06-02 17:05:00,
2013-06-02 10:10:00,76.7,53.1,29.73,SW,225,2.0,4.0,44,0.00,,,0.00,WUHU216HW,2013-06-02 17:10:00,
2013-06-02 10:15:00,76.9,52.7,29.73,WNW,293,2.7,4.0,43,0.00,,,0.00,WUHU216HW,2013-06-02 17:15:00,
2013-06-02 10:20:00,77.4,53.1,29.74,WSW,248,2.5,2.9,43,0.00,,,0.00,WUHU216HW,2013-06-02 17:20:00,
2013-06-02 10:25:00,77.6,53.3,29.73,West,270,4.3,4.3,43,0.00,,,0.00,WUHU216HW,2013-06-02 17:25:00,
2013-06-02 10:30:00,77.8,52.8,29.73,NNW,338,2.7,4.7,42,0.00,,,0.00,WUHU216HW,2013-06-02 17:30:00,
2013-06-02 10:35:00,77.6,52.7,29.73,NNW,338,2.7,4.7,42,0.00,,,0.00,WUHU216HW,2013-06-02 17:35:00,
2013-06-02 10:40:00,77.9,53.0,29.73,WSW,248,2.5,3.6,42,0.00,,,0.00,WUHU216HW,2013-06-02 17:40:00,
2013-06-02 10:45:00,78.5,53.5,29.73,WNW,293,4.7,4.7,42,0.00,,,0.00,WUHU216HW,2013-06-02 17:45:00,
2013-06-02 10:50:00,78.5,52.8,29.73,North,0,5.4,5.4,41,0.00,,,0.00,WUHU216HW,2013-06-02 17:50:00,
2013-06-02 10:55:00,78.5,52.8,29.73,WNW,293,2.2,5.4,41,0.00,,,0.00,WUHU216HW,2013-06-02 17:55:00,
2013-06-02 11:00:00,78.5,52.8,29.73,WNW,293,4.7,5.4,41,0.00,,,0.00,WUHU216HW,2013-06-02 18:00:00,
2013-06-02 11:05:00,78.7,52.4,29.73,NNW,338,2.0,6.7,40,0.00,,,0.00,WUHU216HW,2013-06-02 18:05:00,
2013-06-02 11:10:00,79.2,52.9,29.73,WNW,293,3.6,6.7,40,0.00,,,0.00,WUHU216HW,2013-06-02 18:10:00,
2013-06-02 11:15:00,79.6,53.2,29.73,SW,225,3.1,6.3,40,0.00,,,0.00,WUHU216HW,2013-06-02 18:15:00,
2013-06-02 11:20:00,79.7,53.4,29.73,SW,225,4.7,6.3,40,0.00,,,0.00,WUHU216HW,2013-06-02 18:20:00,
2013-06-02 11:25:00,80.6,53.4,29.73,SSW,203,4.0,6.3,39,0.00,,,0.00,WUHU216HW,2013-06-02 18:25:00,
2013-06-02 11:30:00,81.0,53.7,29.72,WSW,248,5.6,6.3,39,0.00,,,0.00,WUHU216HW,2013-06-02 18:30:00,
2013-06-02 11:35:00,81.4,54.1,29.72,West,270,3.8,5.6,39,0.00,,,0.00,WUHU216HW,2013-06-02 18:35:00,
2013-06-02 11:40:00,81.5,53.5,29.73,NW,315,3.1,4.5,38,0.00,,,0.00,WUHU216HW,2013-06-02 18:40:00,
2013-06-02 11:45:00,81.5,53.5,29.72,West,270,4.5,4.5,38,0.00,,,0.00,WUHU216HW,2013-06-02 18:45:00,
2013-06-02 11:50:00,82.1,53.1,29.72,NNW,338,0.7,5.4,37,0.00,,,0.00,WUHU216HW,2013-06-02 18:50:00,
2013-06-02 11:55:00,82.3,53.3,29.72,WSW,248,3.1,5.4,37,0.00,,,0.00,WUHU216HW,2013-06-02 18:55:00,
2013-06-02 12:00:00,82.8,53.7,29.72,NW,315,2.0,4.7,37,0.00,,,0.00,WUHU216HW,2013-06-02 19:00:00,
2013-06-02 12:05:00,83.2,54.1,29.72,West,270,3.4,7.6,37,0.00,,,0.00,WUHU216HW,2013-06-02 19:05:00,
2013-06-02 12:10:00,83.5,54.4,29.71,SW,225,1.8,7.6,37,0.00,,,0.00,WUHU216HW,2013-06-02 19:10:00,
2013-06-02 12:15:00,83.9,54.7,29.71,SSW,203,3.6,3.6,37,0.00,,,0.00,WUHU216HW,2013-06-02 19:15:00,
2013-06-02 12:20:00,84.4,53.7,29.71,SW,225,3.8,3.8,35,0.00,,,0.00,WUHU216HW,2013-06-02 19:20:00,
2013-06-02 12:25:00,84.4,53.7,29.71,West,270,4.0,4.0,35,0.00,,,0.00,WUHU216HW,2013-06-02 19:25:00,
2013-06-02 12:30:00,84.4,52.8,29.71,WNW,293,0.9,4.0,34,0.00,,,0.00,WUHU216HW,2013-06-02 19:30:00,
2013-06-02 12:35:00,84.6,53.0,29.71,WSW,248,5.6,6.3,34,0.00,,,0.00,WUHU216HW,2013-06-02 19:35:00,
2013-06-02 12:40:00,84.8,53.2,29.71,West,270,4.5,6.3,34,0.00,,,0.00,WUHU216HW,2013-06-02 19:40:00,
2013-06-02 12:45:00,85.1,54.3,29.71,WSW,248,4.7,5.6,35,0.00,,,0.00,WUHU216HW,2013-06-02 19:45:00,
2013-06-02 12:50:00,85.5,53.8,29.71,WSW,248,4.5,4.9,34,0.00,,,0.00,WUHU216HW,2013-06-02 19:50:00,
2013-06-02 12:55:00,85.7,54.7,29.70,SSW,203,3.4,5.4,35,0.00,,,0.00,WUHU216HW,2013-06-02 19:55:00,
2013-06-02 13:00:00,86.0,54.3,29.70,WNW,293,5.4,5.4,34,0.00,,,0.00,WUHU216HW,2013-06-02 20:00:00,
2013-06-02 13:05:00,86.0,53.5,29.70,North,0,1.8,5.4,33,0.00,,,0.00,WUHU216HW,2013-06-02 20:05:00,
2013-06-02 13:10:00,85.9,52.6,29.69,WSW,248,6.3,6.3,32,0.00,,,0.00,WUHU216HW,2013-06-02 20:10:00,
2013-06-02 13:15:00,86.0,53.5,29.69,WSW,248,4.3,6.3,33,0.00,,,0.00,WUHU216HW,2013-06-02 20:15:00,
2013-06-02 13:20:00,86.4,53.8,29.69,WSW,248,3.1,6.3,33,0.00,,,0.00,WUHU216HW,2013-06-02 20:20:00,
2013-06-02 13:25:00,86.8,53.3,29.69,WSW,248,6.3,6.3,32,0.00,,,0.00,WUHU216HW,2013-06-02 20:25:00,
2013-06-02 13:30:00,86.8,53.3,29.69,WSW,248,7.8,7.8,32,0.00,,,0.00,WUHU216HW,2013-06-02 20:30:00,
2013-06-02 13:35:00,87.1,53.6,29.69,WSW,248,3.1,7.8,32,0.00,,,0.00,WUHU216HW,2013-06-02 20:35:00,
2013-06-02 13:40:00,87.5,53.1,29.69,West,270,4.3,8.5,31,0.00,,,0.00,WUHU216HW,2013-06-02 20:40:00,
2013-06-02 13:45:00,87.7,53.2,29.69,WSW,248,2.9,8.5,31,0.00,,,0.00,WUHU216HW,2013-06-02 20:45:00,
2013-06-02 13:50:00,88.0,52.8,29.69,West,270,3.8,8.5,30,0.00,,,0.00,WUHU216HW,2013-06-02 20:50:00,
2013-06-02 13:55:00,88.2,53.7,29.69,SW,225,6.0,8.5,31,0.00,,,0.00,WUHU216HW,2013-06-02 20:55:00,
2013-06-02 14:00:00,88.6,53.2,29.69,WSW,248,4.7,7.8,30,0.00,,,0.00,WUHU216HW,2013-06-02 21:00:00,
2013-06-02 14:05:00,88.9,52.5,29.69,WSW,248,5.4,7.8,29,0.00,,,0.00,WUHU216HW,2013-06-02 21:05:00,
2013-06-02 14:10:00,89.3,52.7,29.68,SSW,203,7.2,7.2,29,0.00,,,0.00,WUHU216HW,2013-06-02 21:10:00,
2013-06-02 14:15:00,89.6,53.1,29.68,SW,225,5.1,7.2,29,0.00,,,0.00,WUHU216HW,2013-06-02 21:15:00,
2013-06-02 14:20:00,89.8,54.4,29.68,West,270,6.9,6.9,30,0.00,,,0.00,WUHU216HW,2013-06-02 21:20:00,
2013-06-02 14:25:00,90.0,53.5,29.68,SW,225,3.4,6.9,29,0.00,,,0.00,WUHU216HW,2013-06-02 21:25:00,
2013-06-02 14:30:00,90.2,53.6,29.68,West,270,3.8,6.9,29,0.00,,,0.00,WUHU216HW,2013-06-02 21:30:00,
2013-06-02 14:35:00,90.4,53.7,29.68,WSW,248,3.6,8.1,29,0.00,,,0.00,WUHU216HW,2013-06-02 21:35:00,
2013-06-02 14:40:00,90.7,53.0,29.68,SSE,158,6.3,8.1,28,0.00,,,0.00,WUHU216HW,2013-06-02 21:40:00,
2013-06-02 14:45:00,91.1,54.4,29.68,SSW,203,5.8,7.6,29,0.00,,,0.00,WUHU216HW,2013-06-02 21:45:00,
2013-06-02 14:50:00,91.4,53.7,29.68,SW,225,5.4,8.1,28,0.00,,,0.00,WUHU216HW,2013-06-02 21:50:00,
2013-06-02 14:55:00,91.8,52.8,29.68,WSW,248,6.0,8.1,27,0.00,,,0.00,WUHU216HW,2013-06-02 21:55:00,
2013-06-02 15:00:00,91.8,55.0,29.68,West,270,4.7,6.7,29,0.00,,,0.00,WUHU216HW,2013-06-02 22:00:00,
2013-06-02 15:04:00,92.0,55.2,29.68,SSW,203,7.2,7.2,29,0.00,,,0.00,WUHU216HW,2013-06-02 22:04:00,
2013-06-02 15:10:00,92.0,55.2,29.68,West,270,3.6,7.2,29,0.00,,,0.00,WUHU216HW,2013-06-02 22:10:00,
2013-06-02 15:14:00,92.2,55.3,29.68,WSW,248,6.7,8.7,29,0.00,,,0.00,WUHU216HW,2013-06-02 22:14:00,
2013-06-02 15:19:00,92.3,53.2,29.68,SW,225,9.4,9.4,27,0.00,,,0.00,WUHU216HW,2013-06-02 22:19:00,
2013-06-02 15:25:00,92.3,54.4,29.68,WSW,248,8.7,9.4,28,0.00,,,0.00,WUHU216HW,2013-06-02 22:25:00,
2013-06-02 15:30:00,92.3,53.2,29.67,South,180,7.8,8.7,27,0.00,,,0.00,WUHU216HW,2013-06-02 22:30:00,
2013-06-02 15:34:00,92.3,53.2,29.67,WSW,248,6.3,9.4,27,0.00,,,0.00,WUHU216HW,2013-06-02 22:34:00,
2013-06-02 15:39:00,92.0,52.9,29.67,NW,315,4.9,9.4,27,0.00,,,0.00,WUHU216HW,2013-06-02 22:39:00,
2013-06-02 15:44:00,91.6,52.7,29.67,WSW,248,6.9,9.2,27,0.00,,,0.00,WUHU216HW,2013-06-02 22:44:00,
2013-06-02 15:49:00,91.4,52.5,29.67,WSW,248,2.9,6.9,27,0.00,,,0.00,WUHU216HW,2013-06-02 22:49:00,
2013-06-02 15:54:00,91.1,52.2,29.67,WSW,248,4.3,9.4,27,0.00,,,0.00,WUHU216HW,2013-06-02 22:54:00,
2013-06-02 15:59:00,90.9,52.0,29.67,SW,225,4.7,10.5,27,0.00,,,0.00,WUHU216HW,2013-06-02 22:59:00,
2013-06-02 16:04:00,90.7,51.8,29.67,West,270,8.5,10.5,27,0.00,,,0.00,WUHU216HW,2013-06-02 23:04:00,
2013-06-02 16:09:00,90.5,51.8,29.67,NW,315,3.6,8.7,27,0.00,,,0.00,WUHU216HW,2013-06-02 23:09:00,
2013-06-02 16:14:00,90.2,52.5,29.67,SSW,203,5.6,8.7,28,0.00,,,0.00,WUHU216HW,2013-06-02 23:14:00,
2013-06-02 16:19:00,90.0,53.5,29.67,WNW,293,4.3,8.3,29,0.00,,,0.00,WUHU216HW,2013-06-02 23:19:00,
2013-06-02 16:24:00,90.0,53.5,29.67,WSW,248,6.9,10.3,29,0.00,,,0.00,WUHU216HW,2013-06-02 23:24:00,
2013-06-02 16:29:00,90.0,53.5,29.67,West,270,5.4,10.3,29,0.00,,,0.00,WUHU216HW,2013-06-02 23:29:00,
2013-06-02 16:34:00,89.8,54.4,29.67,West,270,2.9,8.5,30,0.00,,,0.00,WUHU216HW,2013-06-02 23:34:00,
2013-06-02 16:39:00,89.8,54.4,29.66,West,270,3.1,8.7,30,0.00,,,0.00,WUHU216HW,2013-06-02 23:39:00,
2013-06-02 16:44:00,89.8,53.3,29.66,WSW,248,6.3,10.1,29,0.00,,,0.00,WUHU216HW,2013-06-02 23:44:00,
2013-06-02 16:49:00,89.5,51.8,29.66,WSW,248,7.2,10.1,28,0.00,,,0.00,WUHU216HW,2013-06-02 23:49:00,
2013-06-02 16:54:00,88.9,52.5,29.66,WSW,248,12.1,12.1,29,0.00,,,0.00,WUHU216HW,2013-06-02 23:54:00,
2013-06-02 16:59:00,88.2,51.9,29.66,WSW,248,6.9,12.1,29,0.00,,,0.00,WUHU216HW,2013-06-02 23:59:00,
2013-06-02 17:04:00,87.8,51.5,29.66,WSW,248,6.9,10.1,29,0.00,,,0.00,WUHU216HW,2013-06-03 00:04:00,
2013-06-02 17:09:00,88.0,52.8,29.66,WSW,248,4.0,6.9,30,0.00,,,0.00,WUHU216HW,2013-06-03 00:09:00,
2013-06-02 17:14:00,88.2,51.9,29.65,SSW,203,5.4,6.9,29,0.00,,,0.00,WUHU216HW,2013-06-03 00:14:00,
2013-06-02 17:19:00,88.6,52.1,29.65,SSW,203,6.9,6.9,29,0.00,,,0.00,WUHU216HW,2013-06-03 00:19:00,
2013-06-02 17:24:00,88.7,52.3,29.65,West,270,8.3,8.3,29,0.00,,,0.00,WUHU216HW,2013-06-03 00:24:00,
2013-06-02 17:29:00,88.9,52.5,29.65,WSW,248,6.9,8.3,29,0.00,,,0.00,WUHU216HW,2013-06-03 00:29:00,
2013-06-02 17:34:00,88.7,52.3,29.65,SW,225,5.8,7.6,29,0.00,,,0.00,WUHU216HW,2013-06-03 00:34:00,
2013-06-02 17:39:00,88.6,52.1,29.65,SSW,203,4.5,8.5,29,0.00,,,0.00,WUHU216HW,2013-06-03 00:39:00,
2013-06-02 17:44:00,88.4,52.0,29.65,SW,225,4.0,8.5,29,0.00,,,0.00,WUHU216HW,2013-06-03 00:44:00,
2013-06-02 17:49:00,88.2,52.9,29.65,ESE,113,2.2,10.1,30,0.00,,,0.00,WUHU216HW,2013-06-03 00:49:00,
2013-06-02 17:54:00,88.2,51.9,29.65,SW,225,7.4,10.1,29,0.00,,,0.00,WUHU216HW,2013-06-03 00:54:00,
2013-06-02 17:59:00,87.8,51.5,29.65,South,180,5.8,7.4,29,0.00,,,0.00,WUHU216HW,2013-06-03 00:59:00,
2013-06-02 18:04:00,87.5,52.3,29.65,SSW,203,6.9,6.9,30,0.00,,,0.00,WUHU216HW,2013-06-03 01:04:00,
2013-06-02 18:09:00,87.3,52.1,29.65,WSW,248,6.0,7.6,30,0.00,,,0.00,WUHU216HW,2013-06-03 01:09:00,
2013-06-02 18:14:00,86.6,52.4,29.65,WSW,248,3.4,7.6,31,0.00,,,0.00,WUHU216HW,2013-06-03 01:14:00,
2013-06-02 18:19:00,86.0,51.9,29.65,NW,315,5.1,7.4,31,0.00,,,0.00,WUHU216HW,2013-06-03 01:19:00,
2013-06-02 18:24:00,85.9,51.8,29.65,WNW,293,6.3,6.3,31,0.00,,,0.00,WUHU216HW,2013-06-03 01:24:00,
2013-06-02 18:29:00,85.1,51.9,29.65,WNW,293,5.4,6.3,32,0.00,,,0.00,WUHU216HW,2013-06-03 01:29:00,
2013-06-02 18:34:00,84.6,51.4,29.65,SW,225,4.7,6.3,32,0.00,,,0.00,WUHU216HW,2013-06-03 01:34:00,
2013-06-02 18:39:00,84.2,51.1,29.66,WNW,293,4.7,5.6,32,0.00,,,0.00,WUHU216HW,2013-06-03 01:39:00,
2013-06-02 18:44:00,84.1,51.8,29.66,WNW,293,3.8,5.6,33,0.00,,,0.00,WUHU216HW,2013-06-03 01:44:00,
2013-06-02 18:49:00,83.5,51.2,29.66,West,270,2.0,5.1,33,0.00,,,0.00,WUHU216HW,2013-06-03 01:49:00,
2013-06-02 18:54:00,83.2,51.0,29.66,SW,225,4.0,5.1,33,0.00,,,0.00,WUHU216HW,2013-06-03 01:54:00,
2013-06-02 18:59:00,82.8,51.4,29.66,WSW,248,1.8,4.3,34,0.00,,,0.00,WUHU216HW,2013-06-03 01:59:00,
2013-06-02 19:04:00,82.6,51.2,29.66,WSW,248,3.6,4.7,34,0.00,,,0.00,WUHU216HW,2013-06-03 02:04:00,
2013-06-02 19:09:00,82.6,51.2,29.66,SW,225,3.8,4.7,34,0.00,,,0.00,WUHU216HW,2013-06-03 02:09:00,
2013-06-02 19:14:00,82.4,51.0,29.66,West,270,1.1,4.5,34,0.00,,,0.00,WUHU216HW,2013-06-03 02:14:00,
2013-06-02 19:19:00,82.3,51.7,29.66,WSW,248,3.1,4.0,35,0.00,,,0.00,WUHU216HW,2013-06-03 02:19:00,
2013-06-02 19:24:00,82.1,51.6,29.66,WSW,248,1.1,3.1,35,0.00,,,0.00,WUHU216HW,2013-06-03 02:24:00,
2013-06-02 19:29:00,81.5,51.1,29.66,SW,225,3.6,3.6,35,0.00,,,0.00,WUHU216HW,2013-06-03 02:29:00,
2013-06-02 19:34:00,80.6,51.1,29.66,WSW,248,3.1,5.4,36,0.00,,,0.00,WUHU216HW,2013-06-03 02:34:00,
2013-06-02 19:39:00,80.1,51.4,29.66,West,270,3.1,5.4,37,0.00,,,0.00,WUHU216HW,2013-06-03 02:39:00,
2013-06-02 19:44:00,79.4,51.5,29.67,NNW,338,0.7,3.6,38,0.00,,,0.00,WUHU216HW,2013-06-03 02:44:00,
2013-06-02 19:49:00,78.3,51.3,29.67,WNW,293,4.9,4.9,39,0.00,,,0.00,WUHU216HW,2013-06-03 02:49:00,
2013-06-02 19:54:00,77.0,50.9,29.67,NW,315,4.7,6.7,40,0.00,,,0.00,WUHU216HW,2013-06-03 02:54:00,
2013-06-02 19:59:00,76.1,50.1,29.67,West,270,3.1,6.7,40,0.00,,,0.00,WUHU216HW,2013-06-03 02:59:00,
2013-06-02 20:04:00,75.6,50.2,29.67,West,270,3.1,4.9,41,0.00,,,0.00,WUHU216HW,2013-06-03 03:04:00,
2013-06-02 20:09:00,74.9,50.2,29.67,WNW,293,4.0,4.0,42,0.00,,,0.00,WUHU216HW,2013-06-03 03:09:00,
2013-06-02 20:14:00,74.2,50.1,29.67,NW,315,2.5,4.0,43,0.00,,,0.00,WUHU216HW,2013-06-03 03:14:00,
2013-06-02 20:19:00,73.4,50.0,29.67,West,270,1.1,4.0,44,0.00,,,0.00,WUHU216HW,2013-06-03 03:19:00,
2013-06-02 20:24:00,73.1,49.8,29.68,NW,315,2.5,4.7,44,0.00,,,0.00,WUHU216HW,2013-06-03 03:24:00,
2013-06-02 20:29:00,72.5,49.2,29.68,WSW,248,3.8,4.7,44,0.00,,,0.00,WUHU216HW,2013-06-03 03:29:00,
2013-06-02 20:34:00,72.2,49.0,29.68,WSW,248,2.2,4.3,44,0.00,,,0.00,WUHU216HW,2013-06-03 03:34:00,
2013-06-02 20:39:00,71.8,48.6,29.68,WSW,248,3.1,4.3,44,0.00,,,0.00,WUHU216HW,2013-06-03 03:39:00,
2013-06-02 20:44:00,71.5,48.9,29.68,NW,315,0.2,3.1,45,0.00,,,0.00,WUHU216HW,2013-06-03 03:44:00,
2013-06-02 20:49:00,71.1,48.6,29.68,SW,225,2.5,2.9,45,0.00,,,0.00,WUHU216HW,2013-06-03 03:49:00,
2013-06-02 20:54:00,70.9,48.4,29.68,SW,225,2.9,3.6,45,0.00,,,0.00,WUHU216HW,2013-06-03 03:54:00,
2013-06-02 20:59:00,70.4,48.5,29.68,WSW,248,2.2,3.6,46,0.00,,,0.00,WUHU216HW,2013-06-03 03:59:00,
2013-06-02 21:01:00,70.2,48.3,29.68,SSW,203,2.7,3.6,46,0.00,,,0.00,WUHU216HW,2013-06-03 04:01:00,
2013-06-02 21:06:00,69.8,48.1,29.68,SW,225,0.2,2.9,46,0.00,,,0.00,WUHU216HW,2013-06-03 04:06:00,
2013-06-02 21:11:00,69.5,48.3,29.68,SW,225,1.6,2.9,47,0.00,,,0.00,WUHU216HW,2013-06-03 04:11:00,
2013-06-02 21:16:00,68.9,47.8,29.69,WSW,248,2.2,3.4,47,0.00,,,0.00,WUHU216HW,2013-06-03 04:16:00,
2013-06-02 21:21:00,68.6,47.5,29.69,WSW,248,1.8,3.4,47,0.00,,,0.00,WUHU216HW,2013-06-03 04:21:00,
2013-06-02 21:26:00,68.2,47.2,29.69,SW,225,1.3,3.1,47,0.00,,,0.00,WUHU216HW,2013-06-03 04:26:00,
2013-06-02 21:31:00,67.7,47.3,29.69,SW,225,1.6,2.9,48,0.00,,,0.00,WUHU216HW,2013-06-03 04:31:00,
2013-06-02 21:36:00,67.3,47.0,29.69,SW,225,1.8,2.9,48,0.00,,,0.00,WUHU216HW,2013-06-03 04:36:00,
2013-06-02 21:41:00,67.0,47.3,29.69,SW,225,2.5,3.4,49,0.00,,,0.00,WUHU216HW,2013-06-03 04:41:00,
2013-06-02 21:47:00,66.6,46.9,29.69,SW,225,3.4,3.6,49,0.00,,,0.00,WUHU216HW,2013-06-03 04:47:00,
2013-06-02 21:52:00,66.2,47.2,29.69,SW,225,1.6,4.9,50,0.00,,,0.00,WUHU216HW,2013-06-03 04:52:00,
2013-06-02 21:57:00,65.9,46.8,29.69,WSW,248,2.5,4.9,50,0.00,,,0.00,WUHU216HW,2013-06-03 04:57:00,
2013-06-02 22:02:00,65.5,46.9,29.70,SSW,203,3.1,6.5,51,0.00,,,0.00,WUHU216HW,2013-06-03 05:02:00,
2013-06-02 22:07:00,65.2,47.1,29.70,West,270,3.1,6.5,52,0.00,,,0.00,WUHU216HW,2013-06-03 05:07:00,
2013-06-02 22:12:00,64.8,47.2,29.70,WSW,248,5.1,5.1,53,0.00,,,0.00,WUHU216HW,2013-06-03 05:12:00,
2013-06-02 22:17:00,64.4,46.8,29.70,SW,225,2.7,5.1,53,0.00,,,0.00,WUHU216HW,2013-06-03 05:17:00,
2013-06-02 22:22:00,64.1,47.0,29.70,SSW,203,4.5,4.5,54,0.00,,,0.00,WUHU216HW,2013-06-03 05:22:00,
2013-06-02 22:27:00,63.7,47.2,29.70,SSW,203,3.4,4.5,55,0.00,,,0.00,WUHU216HW,2013-06-03 05:27:00,
2013-06-02 22:32:00,63.4,46.8,29.70,SSW,203,1.1,3.8,55,0.00,,,0.00,WUHU216HW,2013-06-03 05:32:00,
2013-06-02 22:37:00,63.2,47.2,29.70,West,270,2.0,3.8,56,0.00,,,0.00,WUHU216HW,2013-06-03 05:37:00,
2013-06-02 22:42:00,62.8,47.4,29.71,SSW,203,3.4,3.6,57,0.00,,,0.00,WUHU216HW,2013-06-03 05:42:00,
2013-06-02 22:47:00,62.6,47.6,29.70,SW,225,6.7,6.7,58,0.00,,,0.00,WUHU216HW,2013-06-03 05:47:00,
2013-06-02 22:52:00,62.3,47.4,29.71,SSW,203,4.5,6.7,58,0.00,,,0.00,WUHU216HW,2013-06-03 05:52:00,
2013-06-02 22:57:00,62.1,47.2,29.71,SSW,203,2.7,4.5,58,0.00,,,0.00,WUHU216HW,2013-06-03 05:57:00,
2013-06-02 23:02:00,61.7,47.4,29.71,West,270,2.7,4.7,59,0.00,,,0.00,WUHU216HW,2013-06-03 06:02:00,
2013-06-02 23:07:00,61.6,47.6,29.71,SSW,203,5.6,5.6,60,0.00,,,0.00,WUHU216HW,2013-06-03 06:07:00,
2013-06-02 23:12:00,61.4,47.4,29.71,WSW,248,4.7,5.6,60,0.00,,,0.00,WUHU216HW,2013-06-03 06:12:00,
2013-06-02 23:17:00,61.2,47.7,29.71,SW,225,3.4,4.7,61,0.00,,,0.00,WUHU216HW,2013-06-03 06:17:00,
2013-06-02 23:22:00,60.8,47.8,29.70,SSW,203,4.7,5.8,62,0.00,,,0.00,WUHU216HW,2013-06-03 06:22:00,
2013-06-02 23:27:00,60.8,47.8,29.70,SW,225,2.7,5.8,62,0.00,,,0.00,WUHU216HW,2013-06-03 06:27:00,
2013-06-02 23:32:00,60.5,47.9,29.70,SW,225,1.8,4.0,63,0.00,,,0.00,WUHU216HW,2013-06-03 06:32:00,
2013-06-02 23:37:00,60.3,47.3,29.70,WSW,248,3.8,5.4,62,0.00,,,0.00,WUHU216HW,2013-06-03 06:37:00,
2013-06-02 23:42:00,60.1,47.5,29.71,SE,135,4.7,5.4,63,0.00,,,0.00,WUHU216HW,2013-06-03 06:42:00,
2013-06-02 23:47:00,60.1,47.5,29.71,WSW,248,2.9,5.1,63,0.00,,,0.00,WUHU216HW,2013-06-03 06:47:00,
2013-06-02 23:52:00,59.9,47.4,29.70,SSW,203,4.5,5.4,63,0.00,,,0.00,WUHU216HW,2013-06-03 06:52:00,
2013-06-02 23:57:00,59.8,47.5,29.71,SSE,158,4.0,5.4,64,0.00,,,0.00,WUHU216HW,2013-06-03 06:57:00,